Regional Weather Roundup
Issued by NWS

Home | Current Version | Previous Version | Graphics & Text | Print | Product List | Glossary On
Versions: 1 2 3 4 5 6 7 8 9 10 11 12 13 14 15 16 17 18 19 20 21 22 23 24 25 26 27 28 29 30 31 32 33 34 35 36 37 38 39 40 41 42 43 44 45 46 47 48 49 50
000
ASUS43 KLOT 180603
RWRIL

ILLINOIS REGIONAL WEATHER ROUNDUP
NATIONAL WEATHER SERVICE CHICAGO/ROMEOVILLE IL
1200 AM CST WED JAN 18 2017

NOTE: "FAIR" INDICATES FEW OR NO CLOUDS BELOW 12,000 FEET WITH NO
SIGNIFICANT WEATHER AND/OR OBSTRUCTIONS TO VISIBILITY.

* THESE STATIONS ARE NOT UNDER NWS QUALITY CONTROL. THEY ALSO MAY NOT
  REPORT WEATHER SUCH AS PRECIPITATION OR FOG.

ILZ001-002-007-009-015-016-024-180700-
NORTHWEST ILLINOIS

CITY           SKY/WX    TMP DP  RH WIND       PRES   REMARKS
MOLINE         CLOUDY    35  32  88 W12       30.08S FOG     WCI  27
6HR MIN TEMP:  34; 6HR MAX TEMP:  36;

STERLING*      CLOUDY    34  33  96 W10       30.06S FOG     WCI  26
SAVANNA*       CLOUDY    34  33  96 W7        30.06R FOG     WCI  28
$$

ILZ003-004-008-010-011-017-018-180700-
NORTH CENTRAL ILLINOIS

CITY           SKY/WX    TMP DP  RH WIND       PRES   REMARKS
ROCKFORD       CLOUDY    35  33  92 W9        30.05R FOG     WCI  28
6HR MIN TEMP:  35; 6HR MAX TEMP:  35; 6HR PCP: TRACE;

FREEPORT*      CLOUDY    33  33  99 W8        30.05S FOG     WCI  26
ROCHELLE*      CLOUDY    33  33  98 W9        30.04S FOG     WCI  25
DE KALB*       CLOUDY    33  33  98 W12       30.03R FOG     WCI  25
$$

ILZ005-006-012>014-019>023-180700-
NORTHEAST ILLINOIS

CITY           SKY/WX    TMP DP  RH WIND       PRES   REMARKS
CHICAGO-OHARE  CLOUDY    35  33  92 W10       30.00R WCI  27
6HR MIN TEMP:  35; 6HR MAX TEMP:  36; 6HR PCP: TRACE;

CHICAGO-MIDWAY CLOUDY    33  33 100 W8        30.02R FOG     WCI  26
6HR MIN TEMP:  33; 6HR MAX TEMP:  35; 6HR PCP: TRACE;

AURORA         CLOUDY    35  33  92 W12       30.03R FOG     WCI  27
6HR MIN TEMP:  35; 6HR MAX TEMP:  36;

LANSING*       CLOUDY    34  34 100 W12       30.02S FOG     WCI  26
JOLIET*        CLOUDY    36  34  95 W6        30.05R FOG     WCI  31
WAUKEGAN       CLOUDY    35  33  92 VRB6      29.99R FOG     WCI  30
6HR MIN TEMP:  34; 6HR MAX TEMP:  35; 6HR PCP:  0.03;

DUPAGE AIRPORT CLOUDY    34  32  92 W10       30.01R FOG     WCI  26
6HR MIN TEMP:  34; 6HR MAX TEMP:  35;

KANKAKEE*      CLOUDY    34  34  98 W9        30.06R FOG     WCI  27
WHEELING       CLOUDY    35  33  92 W8        30.02R WCI  29
6HR MIN TEMP:  35; 6HR MAX TEMP:  36; 6HR PCP: TRACE;

MORRIS*        CLOUDY    34  33  96 W12       30.04S FOG     WCI  25
ROMEOVILLE*    CLOUDY    34  34 100 W9        30.03S FOG     WCI  26
NORTHERLY ISL    N/A     35  33  92 W13         N/A  WCI  26
$$

LMZ740>746-180700-
SOUTHERN LAKE MICHIGAN

STATION/POSITION SKY/WX   TEMP    WIND        PRES    VSBY  WAVE
                          AIR SEA DIR/SP/G                  HT/PER
                          (F)     (DEG/KT/KT) (MB)    (MI)  (FT/S)
HARRISON CRIB              37     280/ 17/ 19   N/A
BURNHAM HARBOR             35     270/  8/ 13   N/A
CALUMET HARBOR             35     250/  5/ 12 1015.7R
BURNS HARBOR               35     260/ 14/ 16 1016.9R
$$

ILZ025>027-034>036-040-047-049-050-058-095>099-180700-
WEST-CENTRAL ILLINOIS

CITY           SKY/WX    TMP DP  RH WIND       PRES   REMARKS
QUINCY         CLOUDY    37  34  89 W8        30.15R WCI  31
GALESBURG*     CLOUDY    33  33 100 W10       30.11R FOG     WCI  25
MACOMB*        CLOUDY    35  35  99 W8        30.14S WCI  29
JACKSONVILLE*  CLOUDY    38  34  88 W14       30.15R WCI  29
PITTSFIELD*    CLOUDY    38  35  87 W8        30.16S WCI  32
$$

ILZ028>032-037-038-041>044-048-051>054-059>061-180700-
CENTRAL ILLINOIS

CITY           SKY/WX    TMP DP  RH WIND       PRES   REMARKS
BLOOMINGTON    CLOUDY    35  33  92 W12       30.09R WCI  27
DECATUR        CLOUDY    37  37 100 W12       30.12R WCI  29
PEORIA         CLOUDY    35  33  92 W8        30.11R WCI  29
6HR MIN TEMP:  35; 6HR MAX TEMP:  36;

LACON*         CLOUDY    34  33  96 W8        30.08S FOG     WCI  27
LINCOLN*       CLOUDY    38  37  94 W6        30.12R WCI  33
SPRINGFIELD    CLOUDY    39  35  86 W13       30.14R WCI  31
6HR MIN TEMP:  39; 6HR MAX TEMP:  40;

TAYLORVILLE    CLOUDY    37  35  92 W10G18    30.14S WCI  30
6HR MIN TEMP:  37; 6HR MAX TEMP:  39;

$$

ILZ033-039-045-046-055>057-062-063-180700-
EAST-CENTRAL ILLINOIS

CITY           SKY/WX    TMP DP  RH WIND       PRES   REMARKS
CHAMPAIGN      CLOUDY    37  34  89 W16       30.10S WCI  28
RANTOUL*       CLOUDY    37  35  92 W14       30.08S WCI  29
MATTOON        CLOUDY    37  31  78 W14       30.11S WCI  28
PARIS*         CLOUDY    37  35  94 W12       30.12R WCI  29
$$

ILZ079-100>102-180700-
SOUTHWEST ILLINOIS

CITY           SKY/WX    TMP DP  RH WIND       PRES   REMARKS
ALTON          CLOUDY    38  36  90 W12       30.16S WCI  31
BELLEVILLE     CLOUDY    41  39  93 W6        30.16R
CAHOKIA*       CLOUDY    41  35  79 NW9       30.17F
SPARTA*        CLOUDY    40  36  85 NW6       30.18F
$$

ILZ064>066-069>071-074>076-080>082-084>086-088>090-092>094-180700-
SOUTH-CENTRAL ILLINOIS

CITY           SKY/WX    TMP DP  RH WIND       PRES   REMARKS
CARBONDALE     CLOUDY    41  38  89 NW3       30.19R
6HR MIN TEMP:  41; 6HR MAX TEMP:  44;

CAIRO*         CLOUDY    44  40  86 W3        30.18F
EFFINGHAM*     CLOUDY    39  38  95 W10       30.16S WCI  32
MARION         CLOUDY    43  41  93 NW7       30.19R
MT. VERNON     CLOUDY    40  36  86 VRB3      30.17R
CENTRALIA*     CLOUDY    40  37  87 W6G17     30.16R
SALEM*         CLOUDY    41  36  83 W10       30.16S
METROPOLIS*    CLOUDY    45  40  84 CALM      30.18F
$$

ILZ067-068-072-073-078-083-087-091-180700-
SOUTHEAST ILLINOIS

CITY           SKY/WX    TMP DP  RH WIND       PRES   REMARKS
LAWRENCEVILLE  CLOUDY    41  39  93 W9        30.14R
FLORA*         CLOUDY    41  37  85 W8        30.16S
FAIRFIELD*     CLOUDY    40  37  86 W5        30.16S
HARRISBURG*    CLOUDY    43  38  85 W8        30.18S
ROBINSON*      CLOUDY    39  36  89 W15       30.14S WCI  30
CARMI*         CLOUDY    42  39  87 W9        30.15F
$$

ABBREVIATIONS USED IN REMARKS
   TC - TEMPERATURE IN CELSIUS
  WCI - WIND CHILL INDEX
   HX - HEAT INDEX
  VSB - VISIBILITY
$$




USA.gov is the U.S. government's official web portal to all federal, state and local government web resources and services.